Dewpoint
1 1 1 1 1 2 2 2 2 3 3 2 2 2 1 1 -0 -0 -1 -1 -0 0 1 1 1 2 2 0 -2 -3 -5 -6 -6 -6 -7 -6 -2 2
-2 0 1 1 1 1 1 2 2 2 2 2 2 2 2 1 -0 -0 0 0 1 1 1 1 1 2 2 2 1 0 -0 -1 -1 -2 -2 -3 -3 -2
-11 -9 -6 -7 -3 -2 -1 -0 1 1 2 2 2 2 2 2 2 1 0 1 1 2 2 2 2 2 2 2 2 2 1 0 0 1 1 1 1 -0
-13 -12 -10 -9 -12 -15 -14 -12 -8 -6 -0 -1 0 1 1 2 2 2 2 2 1 1 0 1 2 2 2 2 3 3 2 1 2 2 3 2 2 2
-18 -17 -17 -17 -17 -15 -12 -8 -4 -1 -1 -1 -1 -1 0 1 1 1 2 2 2 1 -0 -1 2 3 3 3 3 3 3 4 4 4 4 3 3 2
-19 -19 -18 -18 -17 -15 -10 -5 -1 -1 -0 -0 -0 0 1 1 1 1 1 1 2 2 0 0 2 3 4 5 4 4 4 4 4 4 5 4 5 3
-20 -20 -19 -19 -18 -17 -11 -4 -2 -1 -1 -1 -1 -1 -0 1 1 1 0 1 2 2 2 1 1 1 2 3 3 4 4 5 4 3 4 4 5 4
-17 -18 -19 -19 -19 -17 -14 -5 -3 -2 -1 -1 -1 -0 -0 0 0 1 1 1 2 1 1 1 1 0 2 3 2 3 3 4 5 5 6 6 4 4
-12 -15 -18 -19 -19 -18 -17 -15 -12 -6 -3 -1 -2 -1 -1 -0 -0 1 1 1 0 0 0 1 0 1 1 2 2 2 2 3 4 6 5 7 7 5
-7 -10 -14 -17 -17 -18 -18 -16 -13 -12 -10 -3 -2 -2 -2 -1 -0 -0 -0 -0 -0 -0 -0 1 -0 0 0 1 1 1 2 2 3 4 6 6 7 7
-5 -7 -11 -14 -16 -16 -17 -16 -16 -17 -14 -15 -15 -15 -14 -10 -2 -1 -1 -1 -1 -1 -0 1 1 1 0 0 1 1 2 2 3 3 3 5 6 6
-4 -5 -7 -11 -13 -13 -13 -12 -13 -13 -15 -16 -16 -14 -14 -15 -12 -8 -4 -2 -2 -2 -1 -1 0 0 1 2 1 1 1 2 2 2 2 2 4 5
-4 -3 -4 -7 -10 -9 -10 -12 -12 -13 -13 -13 -15 -14 -14 -14 -14 -12 -9 -6 -4 -3 -3 -3 -2 -2 -1 -0 1 1 1 1 2 1 1 1 2 4
-5 -4 -3 -4 -8 -7 -8 -11 -14 -14 -13 -13 -14 -14 -14 -14 -13 -13 -12 -11 -8 -6 -4 -4 -4 -4 -4 -3 -2 -0 0 1 1 1 1 1 1 2
-5 -5 -4 -3 -5 -7 -8 -10 -12 -14 -15 -15 -14 -14 -13 -13 -13 -13 -12 -11 -11 -11 -8 -4 -5 -4 -4 -5 -4 -2 -2 -1 -0 -0 0 1 1 1
-4 -5 -5 -4 -4 -6 -7 -7 -10 -12 -13 -13 -13 -13 -13 -13 -13 -11 -11 -10 -11 -10 -8 -7 -7 -6 -6 -6 -5 -4 -4 -3 -2 -1 -1 -1 -1 -1
-3 -4 -4 -4 -4 -5 -5 -6 -8 -10 -12 -12 -13 -14 -14 -13 -12 -10 -10 -9 -9 -8 -8 -7 -7 -7 -7 -7 -7 -7 -8 -7 -8 -9 -9 -8 -8 -7
-3 -3 -4 -4 -4 -4 -4 -5 -7 -8 -10 -11 -13 -14 -14 -12 -11 -10 -9 -9 -9 -8 -8 -7 -7 -7 -8 -7 -6 -6 -6 -6 -7 -7 -8 -8 -9 -9
-3 -3 -4 -4 -4 -4 -4 -4 -6 -7 -9 -11 -13 -14 -13 -12 -11 -11 -10 -10 -9 -8 -8 -8 -8 -8 -8 -8 -8 -7 -7 -7 -7 -7 -7 -7 -8 -8
-3 -3 -4 -4 -4 -4 -4 -4 -5 -5 -8 -11 -11 -11 -13 -12 -11 -11 -10 -10 -9 -9 -8 -8 -8 -8 -8 -8 -8 -8 -8 -8 -8 -8 -8 -8 -8 -9
-4 -4 -4 -4 -4 -4 -4 -4 -4 -4 -7 -8 -7 -7 -9 -11 -11 -10 -10 -9 -9 -8 -8 -9 -8 -8 -8 -8 -8 -8 -8 -8 -8 -8 -8 -8 -10 -10
-5 -4 -4 -4 -4 -4 -4 -4 -4 -4 -5 -7 -6 -7 -8 -9 -10 -10 -11 -10 -9 -9 -9 -9 -9 -9 -8 -8 -8 -8 -8 -8 -8 -8 -8 -9 -10 -10
-5 -5 -4 -4 -4 -4 -4 -5 -4 -4 -4 -6 -7 -7 -8 -11 -10 -11 -11 -11 -10 -9 -9 -9 -9 -9 -9 -8 -8 -8 -8 -9 -8 -9 -9 -9 -9 -9
Wind_Speed
13 14 16 15 16 16 19 20 22 24 28 20 20 22 23 20 19 20 20 19 18 19 19 20 21 23 25 28 31 33 34 36 37 40 42 44 47 49
16 15 15 17 19 18 18 21 23 26 30 28 34 33 32 29 26 23 19 18 19 20 20 20 20 22 22 23 27 31 33 34 35 37 38 40 43 45
15 16 18 16 19 21 22 22 23 25 31 37 33 33 32 30 29 23 19 18 18 19 20 22 23 23 23 25 28 30 32 33 36 37 40 43 43 45
18 18 19 19 21 21 20 21 24 24 27 34 31 28 29 26 23 23 22 20 20 19 21 21 22 22 23 25 24 25 28 33 35 38 40 43 46 48
19 19 19 20 20 18 17 16 16 16 18 21 28 29 28 29 28 23 22 22 21 22 22 20 18 19 21 22 24 27 32 31 34 38 42 44 44 46
19 19 19 19 19 18 17 15 14 15 17 20 23 26 26 23 21 22 26 25 26 25 24 21 19 21 21 23 22 26 27 26 32 38 42 45 44 45
19 19 19 19 20 19 18 15 16 18 20 21 23 24 24 22 22 24 28 28 28 28 29 22 22 22 24 24 24 24 25 29 29 29 34 47 46 40
21 20 20 20 19 20 19 18 17 19 22 22 22 21 23 23 25 23 24 27 30 29 24 33 27 22 22 24 24 25 30 29 24 29 40 22 26 37
23 22 21 20 19 19 20 20 19 17 20 22 23 22 23 23 25 26 28 31 34 34 33 35 28 26 22 22 25 26 28 26 25 22 28 11 14 15
23 22 23 22 20 20 20 21 20 19 16 20 23 25 25 25 26 27 28 30 32 30 26 33 28 27 23 25 27 26 28 29 25 22 18 14 5 2
25 24 24 24 21 21 22 21 20 17 16 18 20 21 22 24 24 27 27 27 28 27 23 24 27 30 26 24 24 24 24 24 25 21 19 19 9 4
27 26 24 25 24 23 23 22 22 18 19 20 19 18 20 21 22 22 23 23 23 22 16 17 18 17 12 19 19 16 16 16 17 20 21 17 16 8
32 31 27 25 26 25 24 24 23 21 20 21 20 20 19 19 20 20 21 21 21 25 23 22 24 24 20 22 25 25 23 21 20 19 19 21 17 14
34 34 29 27 28 28 26 25 24 23 22 22 23 20 20 20 20 21 21 21 23 25 23 21 23 20 20 23 22 21 21 21 19 17 15 15 16 14
31 34 32 29 29 30 28 26 23 23 24 24 23 21 20 20 20 19 19 19 19 19 19 19 19 20 20 22 23 22 21 18 21 20 17 16 14 14
29 28 31 30 31 31 29 27 25 24 24 25 24 22 22 20 20 17 17 16 17 13 13 15 16 18 21 22 22 24 19 16 15 17 17 16 15 15
28 29 27 31 35 34 32 29 27 25 25 23 23 22 22 21 19 17 16 14 15 13 12 11 12 14 17 18 18 17 16 17 17 18 18 17 15 15
31 33 33 31 33 35 35 31 28 26 25 22 22 21 21 20 18 16 17 15 14 12 12 11 11 13 13 13 12 11 11 14 13 13 13 15 12 12
32 33 38 36 34 34 34 32 28 25 22 23 21 20 20 19 18 16 15 14 14 13 12 12 11 11 13 14 13 12 11 13 14 14 15 15 15 10
30 35 38 38 37 34 32 31 25 21 22 21 20 19 19 18 17 16 15 14 13 12 12 11 11 11 12 13 14 14 13 15 13 14 17 17 11 9
32 32 35 38 38 37 34 27 24 22 21 21 21 20 18 18 15 14 15 14 11 12 15 14 13 12 13 15 17 15 9 10 13 16 13 10 7 7
34 33 31 33 37 35 31 25 23 23 22 21 21 19 18 17 15 14 14 14 13 14 14 12 11 12 12 13 15 13 12 12 15 12 7 7 5 3
32 31 29 29 32 32 29 24 23 22 22 22 20 19 16 15 14 12 11 11 11 12 12 11 10 11 11 11 10 11 13 12 6 5 5 6 7 8
Wind_Direction
283 286 285 284 276 274 272 277 289 299 304 305 307 306 307 307 302 298 295 283 276 276 281 285 283 286 287 281 275 274 273 272 271 269 267 265 264 266
278 274 276 275 276 280 278 272 271 280 286 286 294 298 299 297 296 300 293 290 282 281 281 279 285 290 293 298 293 279 274 274 274 272 269 267 266 264
300 291 289 293 284 281 275 272 271 274 280 286 290 294 300 301 294 294 289 291 288 285 283 285 290 288 295 297 299 295 278 275 274 276 274 273 273 267
293 289 289 290 291 292 287 280 276 277 273 280 295 303 305 302 302 303 302 298 295 293 285 287 292 293 296 304 303 303 290 278 277 273 273 275 272 266
297 296 297 295 297 296 293 290 292 294 290 292 301 303 298 301 306 300 298 297 296 295 293 300 287 289 293 302 301 304 294 285 281 279 277 275 269 273
295 295 296 295 295 294 291 292 300 298 300 301 303 309 310 313 303 298 299 303 303 298 293 300 291 287 289 297 300 308 306 293 291 287 283 278 272 267
294 293 294 294 294 294 290 289 285 287 289 292 295 299 301 303 295 294 295 298 295 302 305 302 300 301 304 295 296 307 309 300 303 302 294 283 268 261
292 289 290 292 295 293 290 273 274 279 282 288 293 294 297 300 303 299 293 288 297 298 305 300 301 299 302 301 306 302 310 318 310 313 319 320 273 261
293 294 291 290 290 290 292 294 286 268 267 276 284 285 287 290 288 285 286 287 287 291 295 293 296 296 293 292 299 304 302 313 316 316 328 323 269 301
289 289 287 288 288 289 289 285 286 288 282 272 275 280 280 284 288 289 289 289 290 290 288 287 292 290 293 295 297 298 296 296 310 310 330 334 317 120
285 284 283 283 287 286 288 289 289 294 289 283 285 289 287 282 277 285 291 292 293 295 291 282 282 285 286 284 287 289 293 289 294 306 304 318 337 272
282 278 277 280 280 281 283 286 288 298 292 289 287 285 287 288 285 282 282 290 291 298 292 284 289 290 294 284 278 284 297 295 296 297 308 313 303 314
280 277 275 275 273 277 279 280 285 288 287 288 291 292 294 291 288 285 284 282 281 280 279 283 286 286 283 277 275 280 283 285 285 280 285 293 305 292
281 280 278 275 270 270 272 276 279 282 285 290 288 292 297 292 290 289 286 282 276 275 278 278 279 283 286 285 286 279 281 285 286 284 275 272 276 272
285 282 279 272 269 268 271 274 275 278 284 283 286 293 294 293 292 292 290 291 290 287 275 270 274 278 279 277 279 282 287 280 280 282 279 276 269 266
284 282 278 273 268 267 267 270 273 276 277 278 285 291 291 292 291 291 293 295 295 297 278 276 276 277 279 277 277 275 274 274 272 276 281 281 275 271
285 279 273 266 264 264 266 269 271 271 272 276 281 286 289 289 287 283 285 288 292 299 293 286 286 287 292 293 285 277 280 275 275 275 274 275 277 273
283 279 274 270 268 266 265 266 265 267 270 271 274 280 284 281 279 276 278 279 284 286 287 290 293 295 300 301 281 289 276 277 280 278 277 283 276 274
275 268 272 274 272 269 266 264 263 265 267 266 272 277 277 272 269 273 274 272 273 278 280 281 282 290 296 298 304 289 283 281 288 291 291 288 288 275
280 272 268 272 274 274 269 264 255 259 262 264 268 272 271 268 267 270 272 274 273 273 272 273 285 278 274 285 295 298 290 284 291 299 300 293 285 278
302 287 276 272 269 273 277 266 249 255 261 261 265 266 263 261 263 265 265 262 265 264 271 278 283 277 275 273 278 292 281 288 291 300 303 290 275 263
300 300 287 279 273 273 275 264 250 251 257 259 263 259 254 254 258 260 263 259 257 264 272 280 282 279 277 274 281 284 292 294 296 287 276 257 245 248
295 302 294 287 280 275 274 263 248 250 256 257 253 248 248 252 251 253 256 258 262 264 269 279 282 283 283 276 275 282 293 297 293 275 253 240 240 241
Height
1447 1447 1446 1445 1445 1444 1443 1442 1438 1432 1428 1426 1426 1426 1426 1424 1423 1422 1420 1419 1418 1418 1417 1415 1414 1413 1411 1410 1409 1409 1409 1408 1408 1408 1409 1410 1411 1412
1442 1442 1441 1441 1440 1439 1437 1436 1434 1431 1425 1423 1421 1420 1419 1419 1417 1416 1415 1414 1413 1412 1410 1409 1407 1406 1405 1403 1401 1400 1399 1399 1398 1397 1397 1398 1399 1399
1438 1436 1435 1434 1433 1433 1431 1430 1428 1426 1421 1415 1416 1414 1412 1411 1410 1410 1408 1407 1406 1406 1404 1403 1402 1400 1398 1396 1393 1391 1390 1389 1388 1387 1386 1386 1386 1386
1433 1432 1430 1429 1428 1426 1424 1422 1421 1420 1417 1409 1408 1408 1407 1406 1404 1403 1403 1402 1400 1400 1398 1397 1396 1394 1392 1390 1387 1385 1382 1381 1380 1378 1375 1374 1371 1371
1429 1427 1426 1424 1422 1420 1418 1416 1415 1413 1412 1409 1402 1403 1402 1400 1397 1397 1397 1395 1394 1393 1392 1391 1389 1388 1386 1383 1381 1378 1375 1372 1371 1368 1365 1362 1358 1357
1424 1422 1420 1418 1416 1414 1412 1411 1410 1408 1407 1405 1401 1398 1397 1395 1393 1392 1391 1390 1388 1386 1385 1384 1383 1381 1380 1378 1375 1372 1368 1363 1361 1357 1352 1348 1345 1344
1419 1417 1415 1413 1411 1409 1407 1405 1405 1403 1402 1400 1397 1395 1393 1391 1389 1388 1386 1384 1381 1381 1378 1378 1377 1376 1375 1373 1369 1367 1363 1358 1354 1347 1341 1333 1328 1329
1413 1411 1410 1408 1406 1404 1402 1400 1399 1398 1396 1395 1392 1390 1388 1386 1384 1383 1381 1379 1376 1376 1373 1371 1372 1369 1369 1367 1363 1359 1357 1352 1348 1341 1331 1316 1315 1318
1407 1406 1404 1403 1401 1399 1397 1395 1393 1392 1391 1390 1387 1385 1382 1381 1379 1377 1376 1375 1372 1372 1369 1363 1365 1363 1362 1360 1359 1354 1351 1348 1344 1339 1331 1320 1315 1313
1401 1400 1398 1396 1395 1393 1391 1389 1387 1386 1385 1383 1381 1379 1377 1375 1374 1372 1369 1367 1365 1364 1364 1356 1358 1355 1355 1354 1352 1350 1347 1343 1340 1337 1332 1325 1321 1317
1395 1394 1392 1390 1389 1387 1385 1383 1381 1380 1379 1377 1375 1373 1371 1370 1368 1366 1364 1362 1357 1358 1356 1352 1351 1348 1347 1346 1346 1345 1342 1340 1336 1333 1331 1329 1324 1321
1387 1386 1385 1383 1382 1381 1379 1377 1374 1374 1372 1371 1370 1368 1366 1365 1363 1360 1359 1357 1355 1352 1351 1349 1345 1345 1340 1339 1339 1339 1337 1336 1334 1331 1328 1327 1326 1324
1378 1376 1377 1376 1374 1374 1373 1371 1370 1368 1366 1365 1363 1362 1359 1358 1357 1355 1353 1351 1351 1348 1347 1346 1342 1342 1338 1335 1335 1334 1331 1331 1330 1329 1328 1326 1323 1323
1369 1368 1368 1368 1366 1365 1365 1364 1362 1361 1359 1358 1358 1356 1354 1353 1351 1349 1347 1345 1343 1342 1342 1341 1338 1338 1334 1331 1330 1329 1326 1325 1326 1325 1323 1323 1323 1322
1361 1359 1359 1359 1358 1356 1357 1357 1355 1354 1352 1351 1351 1348 1348 1347 1345 1343 1342 1339 1337 1335 1334 1335 1334 1332 1330 1329 1326 1323 1322 1321 1321 1321 1320 1320 1319 1319
1353 1350 1349 1349 1349 1348 1348 1349 1348 1347 1345 1345 1343 1342 1342 1341 1339 1338 1337 1334 1332 1331 1329 1329 1328 1327 1326 1325 1320 1319 1318 1318 1316 1316 1316 1316 1315 1315
1345 1341 1339 1338 1337 1338 1339 1340 1340 1339 1338 1338 1337 1335 1335 1335 1334 1334 1332 1330 1328 1326 1326 1326 1324 1323 1321 1319 1316 1315 1312 1313 1312 1311 1311 1311 1311 1310
1336 1331 1330 1329 1328 1329 1330 1331 1331 1331 1331 1331 1330 1329 1329 1330 1329 1329 1327 1326 1324 1324 1322 1322 1320 1319 1317 1315 1313 1311 1309 1310 1308 1307 1306 1306 1307 1305
1327 1324 1320 1320 1319 1319 1320 1321 1322 1323 1324 1322 1323 1323 1323 1324 1324 1323 1322 1321 1320 1320 1319 1318 1317 1316 1314 1312 1312 1310 1308 1307 1306 1305 1303 1302 1302 1302
1319 1315 1312 1310 1309 1309 1310 1311 1313 1314 1314 1315 1316 1317 1318 1318 1318 1318 1317 1317 1316 1316 1315 1315 1313 1313 1313 1312 1310 1309 1307 1305 1304 1302 1302 1300 1299 1299
1310 1306 1303 1301 1300 1299 1300 1302 1303 1305 1306 1308 1309 1311 1312 1312 1313 1313 1313 1313 1313 1313 1312 1311 1311 1310 1309 1309 1307 1306 1305 1303 1302 1300 1299 1299 1297 1298
1301 1297 1294 1292 1291 1290 1291 1292 1295 1297 1298 1300 1302 1304 1305 1306 1308 1309 1309 1309 1309 1309 1308 1307 1307 1306 1306 1305 1304 1303 1301 1300 1299 1297 1298 1299 1298 1299
1292 1288 1285 1283 1281 1281 1282 1284 1286 1289 1291 1293 1295 1297 1299 1301 1303 1304 1304 1304 1304 1305 1304 1304 1304 1303 1302 1302 1302 1301 1299 1298 1296 1296 1297 1297 1297 1298